When you browse on this site, cookies collect data to enhance your experience and personalize the content and advertising you see.
Visit our Privacy Policy to learn more. By continuing to use the site, you agree to this use of cookies and data.
  • In Italy
  • List of Countries
  • For 7 days
  • Water Temperature
  • Satellite Maps
  • Weather Map
  • Weather Widgets
  • user-avatar
    Login

    Hourly Weather Ropotamo

    Today, 13 December, Thursday

    Time Temperature Precipitation Wind Pressure Humidity
    00:00 +1°C° 0 mm 3 mps 762 mmHg 80%
    01:00 +1°C° 0 mm 3 mps 762 mmHg 80%
    02:00 0°C° 0 mm 4 mps 762 mmHg 79%
    03:00 0°C° 0 mm 4 mps 762 mmHg 78%
    04:00 -1°C° 0 mm 4 mps 762 mmHg 77%
    05:00 -1°C° 0 mm 4 mps 762 mmHg 76%
    06:00 -1°C° 0 mm 4 mps 762 mmHg 77%
    07:00 -1°C° 0 mm 4 mps 762 mmHg 77%
    08:00 0°C° 0 mm 4 mps 762 mmHg 78%
    09:00 +1°C° 0 mm 4 mps 762 mmHg 71%
    10:00 +3°C° 0 mm 5 mps 762 mmHg 65%
    11:00 +5°C° 0 mm 5 mps 763 mmHg 58%
    12:00 +6°C° 0 mm 4 mps 762 mmHg 58%
    13:00 +6°C° 0 mm 4 mps 762 mmHg 58%
    14:00 +6°C° 0 mm 4 mps 762 mmHg 57%
    15:00 +5°C° 0 mm 3 mps 762 mmHg 64%
    16:00 +4°C° 0 mm 3 mps 761 mmHg 70%
    17:00 +4°C° 0 mm 2 mps 761 mmHg 76%
    18:00 +4°C° 0 mm 2 mps 761 mmHg 77%
    19:00 +4°C° 0 mm 2 mps 761 mmHg 78%
    20:00 +4°C° 0 mm 1 mps 762 mmHg 79%
    21:00 +4°C° 0 mm 1 mps 762 mmHg 78%
    22:00 +4°C° 0 mm 1 mps 762 mmHg 78%
    23:00 +4°C° 0 mm 1 mps 762 mmHg 78%

    Tomorrow, 14 December, Friday

    Time Temperature Precipitation Wind Pressure Humidity
    00:00 +4°C° 0 mm 1 mps 762 mmHg 77%
    01:00 +4°C° 0 mm 1 mps 762 mmHg 76%
    02:00 +5°C° 0 mm 1 mps 762 mmHg 76%
    03:00 +5°C° 0 mm 1 mps 762 mmHg 76%
    04:00 +4°C° 0 mm 1 mps 762 mmHg 76%
    05:00 +4°C° 0 mm 1 mps 762 mmHg 76%
    06:00 +4°C° 0 mm 1 mps 762 mmHg 78%
    07:00 +4°C° 0 mm 1 mps 762 mmHg 79%
    08:00 +4°C° 0 mm 1 mps 762 mmHg 80%
    09:00 +5°C° 0 mm 2 mps 762 mmHg 76%
    10:00 +6°C° 0 mm 2 mps 762 mmHg 72%
    11:00 +7°C° 0 mm 2 mps 763 mmHg 68%
    12:00 +8°C° 0 mm 2 mps 762 mmHg 69%
    13:00 +8°C° 0 mm 2 mps 762 mmHg 71%
    14:00 +8°C° 0 mm 2 mps 762 mmHg 72%
    15:00 +7°C° 0.1 mm 2 mps 762 mmHg 76%
    16:00 +7°C° 0.1 mm 2 mps 762 mmHg 80%
    17:00 +6°C° 0.1 mm 2 mps 762 mmHg 84%
    18:00 +6°C° 0.1 mm 2 mps 762 mmHg 85%
    19:00 +6°C° 0.1 mm 2 mps 762 mmHg 86%
    20:00 +6°C° 0.1 mm 2 mps 763 mmHg 88%
    21:00 +6°C° 0.3 mm 2 mps 763 mmHg 89%
    22:00 +6°C° 0.3 mm 2 mps 763 mmHg 90%
    23:00 +6°C° 0.3 mm 2 mps 763 mmHg 91%

    Day after tomorrow, 15 December, Saturday

    Time Temperature Precipitation Wind Pressure Humidity
    00:00 +6°C° 0.4 mm 2 mps 762 mmHg 93%
    01:00 +7°C° 0.4 mm 2 mps 762 mmHg 94%
    02:00 +7°C° 0.4 mm 2 mps 762 mmHg 95%
    03:00 +7°C° 0.4 mm 2 mps 762 mmHg 95%
    04:00 +7°C° 0.4 mm 2 mps 761 mmHg 96%
    05:00 +7°C° 0.4 mm 2 mps 761 mmHg 96%
    06:00 +7°C° 0.5 mm 2 mps 761 mmHg 97%
    07:00 +7°C° 0.5 mm 3 mps 761 mmHg 97%
    08:00 +7°C° 0.5 mm 3 mps 761 mmHg 97%
    09:00 +8°C° 0.2 mm 3 mps 761 mmHg 96%
    10:00 +9°C° 0.2 mm 3 mps 761 mmHg 95%
    11:00 +9°C° 0.2 mm 3 mps 761 mmHg 94%
    12:00 +10°C° 0.1 mm 3 mps 761 mmHg 94%
    13:00 +10°C° 0.1 mm 3 mps 761 mmHg 94%
    14:00 +10°C° 0.1 mm 3 mps 760 mmHg 93%
    15:00 +10°C° 0.5 mm 3 mps 760 mmHg 94%
    16:00 +10°C° 0.5 mm 3 mps 760 mmHg 95%
    17:00 +10°C° 0.5 mm 2 mps 760 mmHg 96%
    18:00 +10°C° 0.2 mm 3 mps 760 mmHg 96%
    19:00 +9°C° 0.2 mm 3 mps 760 mmHg 96%
    20:00 +9°C° 0.2 mm 3 mps 760 mmHg 95%
    21:00 +9°C° 0.2 mm 3 mps 760 mmHg 95%
    22:00 +9°C° 0.2 mm 2 mps 759 mmHg 95%
    23:00 +9°C° 0.2 mm 2 mps 759 mmHg 94%

    16 December, Sunday

    Time Temperature Precipitation Wind Pressure Humidity
    00:00 +9°C° 0 mm 2 mps 759 mmHg 93%
    01:00 +9°C° 0 mm 2 mps 759 mmHg 93%
    02:00 +9°C° 0 mm 2 mps 758 mmHg 92%
    03:00 +9°C° 0 mm 2 mps 758 mmHg 91%
    04:00 +9°C° 0 mm 2 mps 758 mmHg 91%
    05:00 +9°C° 0 mm 2 mps 758 mmHg 90%
    06:00 +9°C° 0 mm 2 mps 758 mmHg 90%
    07:00 +9°C° 0 mm 2 mps 758 mmHg 90%
    08:00 +9°C° 0 mm 2 mps 758 mmHg 90%
    09:00 +11°C° 0 mm 1 mps 758 mmHg 86%
    10:00 +12°C° 0 mm 1 mps 758 mmHg 83%
    11:00 +13°C° 0 mm 1 mps 757 mmHg 80%
    12:00 +14°C° 0 mm 1 mps 757 mmHg 78%
    13:00 +14°C° 0 mm 1 mps 757 mmHg 76%
    14:00 +15°C° 0 mm 1 mps 756 mmHg 73%
    15:00 +14°C° 0 mm 1 mps 756 mmHg 78%
    16:00 +13°C° 0 mm 1 mps 756 mmHg 83%
    17:00 +12°C° 0 mm 1 mps 757 mmHg 88%
    18:00 +10°C° 0.1 mm 2 mps 757 mmHg 89%
    19:00 +10°C° 0.1 mm 3 mps 757 mmHg 89%
    20:00 +9°C° 0.1 mm 3 mps 757 mmHg 90%
    21:00 +8°C° 0 mm 4 mps 757 mmHg 90%
    22:00 +7°C° 0 mm 5 mps 758 mmHg 90%
    23:00 +7°C° 0 mm 6 mps 758 mmHg 90%

    17 December, Monday

    Time Temperature Precipitation Wind Pressure Humidity
    00:00 +5°C° 0.2 mm 6 mps 758 mmHg 89%
    01:00 +4°C° 0.2 mm 6 mps 758 mmHg 89%
    02:00 +4°C° 0.2 mm 6 mps 758 mmHg 89%
    03:00 +5°C° 0.3 mm 5 mps 758 mmHg 88%
    04:00 +3°C° 0.3 mm 5 mps 758 mmHg 87%
    05:00 +3°C° 0.3 mm 5 mps 758 mmHg 86%
    06:00 +3°C° 0.2 mm 5 mps 758 mmHg 86%
    07:00 +4°C° 0.2 mm 4 mps 759 mmHg 86%
    08:00 +4°C° 0.2 mm 4 mps 759 mmHg 86%
    09:00 +4°C° 0 mm 3 mps 759 mmHg 81%
    10:00 +5°C° 0 mm 3 mps 759 mmHg 76%
    11:00 +7°C° 0 mm 3 mps 759 mmHg 71%
    12:00 +7°C° 0 mm 3 mps 759 mmHg 68%
    13:00 +8°C° 0 mm 3 mps 759 mmHg 65%
    14:00 +8°C° 0 mm 3 mps 759 mmHg 62%
    15:00 +7°C° 0 mm 3 mps 759 mmHg 65%
    16:00 +7°C° 0 mm 3 mps 759 mmHg 68%
    17:00 +5°C° 0 mm 3 mps 760 mmHg 71%
    18:00 +6°C° 0 mm 2 mps 760 mmHg 72%
    19:00 +5°C° 0 mm 2 mps 760 mmHg 73%
    20:00 +5°C° 0 mm 2 mps 760 mmHg 74%
    21:00 +4°C° 0 mm 2 mps 761 mmHg 74%
    22:00 +4°C° 0 mm 2 mps 761 mmHg 74%
    23:00 +4°C° 0 mm 2 mps 761 mmHg 74%

    18 December, Tuesday

    Time Temperature Precipitation Wind Pressure Humidity
    00:00 +3°C° 0 mm 2 mps 761 mmHg 74%
    01:00 +2°C° 0 mm 3 mps 761 mmHg 74%
    02:00 +2°C° 0 mm 3 mps 761 mmHg 74%
    03:00 +2°C° 0 mm 3 mps 761 mmHg 74%
    04:00 +2°C° 0 mm 3 mps 761 mmHg 74%
    05:00 +2°C° 0 mm 3 mps 761 mmHg 73%
    06:00 +2°C° 0 mm 3 mps 761 mmHg 73%
    07:00 +2°C° 0 mm 3 mps 761 mmHg 72%
    08:00 +2°C° 0 mm 3 mps 762 mmHg 72%
    09:00 +3°C° 0 mm 3 mps 762 mmHg 68%
    10:00 +4°C° 0 mm 3 mps 762 mmHg 63%
    11:00 +5°C° 0 mm 4 mps 762 mmHg 59%
    12:00 +5°C° 0 mm 4 mps 762 mmHg 60%
    13:00 +5°C° 0 mm 4 mps 762 mmHg 61%
    14:00 +5°C° 0 mm 4 mps 761 mmHg 62%
    15:00 +3°C° 0 mm 5 mps 762 mmHg 68%
    16:00 +2°C° 0 mm 5 mps 762 mmHg 73%
    17:00 +2°C° 0 mm 6 mps 762 mmHg 78%
    18:00 +1°C° 0 mm 6 mps 762 mmHg 80%
    19:00 0°C° 0 mm 7 mps 762 mmHg 81%
    20:00 0°C° 0 mm 7 mps 762 mmHg 82%
    21:00 -1°C° 0 mm 7 mps 762 mmHg 82%
    22:00 -1°C° 0 mm 8 mps 763 mmHg 81%
    23:00 -1°C° 0 mm 8 mps 763 mmHg 80%
    Show more